Regional Weather Roundup
Issued by NWS

Home | Current Version | Previous Version | Text Only | Print | Product List | Glossary Off
Versions: 1 2 3 4 5 6 7 8 9 10 11 12 13 14 15 16 17 18 19 20 21 22 23 24 25 26 27 28 29 30 31 32 33 34 35 36 37 38 39 40 41 42 43 44 45 46 47 48 49 50

330
ASUS43 KOAX 302202
RWRNE

WEATHER ROUNDUP FOR NEBRASKA
NATIONAL WEATHER SERVICE OMAHA NE
500 PM CDT THU MAR 30 2017

NOTES: SATELLITE DATA IS BEING USED TO AUGMENT CLOUD COVER ABOVE
       12000 FEET.
       "FAIR" INDICATES FEW OR NO CLOUDS BELOW 12,000 FEET WITH NO
       SIGNIFICANT WEATHER AND/OR OBSTRUCTIONS TO VISIBILITY.

  * THESE STATIONS DO NOT REPORT WEATHER SUCH AS RAIN...SNOW OR FOG.

NEZ001>004-019>022-054>056-302300-
NEBRASKA PANHANDLE

CITY           SKY/WX    TMP DP  RH WIND       PRES   REMARKS
SCOTTSBLUFF    CLOUDY    60  39  45 E12       29.67F
ALLIANCE       SUNNY     56  36  47 S7        29.69F
CHADRON        CLOUDY    61  38  42 E7        29.68F
KIMBALL        DRIZZLE   56  45  64 E5        29.69R
SIDNEY         SUNNY     59  39  47 SE12      29.69F
$$

NEZ057>060-069>072-079>082-302300-
SOUTHWEST NEBRASKA

CITY           SKY/WX    TMP DP  RH WIND       PRES   REMARKS
NORTH PLATTE   SUNNY     50  35  56 NE6       29.73F
IMPERIAL       SUNNY     58  35  42 W3        29.71F
LEXINGTON      CLOUDY    43  36  75 NE7       29.76F
MCCOOK         SUNNY     52  39  61 NE8       29.73F
OGALLALA       SUNNY     57  37  46 SE3       29.71F
$$

NEZ005>010-023>029-035>040-094-302300-
NORTH CENTRAL NEBRASKA

CITY           SKY/WX    TMP DP  RH WIND       PRES   REMARKS
VALENTINE      PTSUNNY   45  34  65 E8        29.77F
AINSWORTH      CLOUDY    43  36  74 NE8       29.78S
BROKEN BOW     CLOUDY    44  35  70 N9        29.75F
O`NEILL        CLOUDY    44  37  76 NE10      29.78F
ORD            CLOUDY    43  35  73 N14       29.76S
THEDFORD       MOSUNNY   49  37  63 E6        29.75S
$$

NEZ041-046>049-061>064-073>077-083>087-302300-
SOUTH CENTRAL NEBRASKA

CITY           SKY/WX    TMP DP  RH WIND       PRES   REMARKS
GRAND ISLAND   CLOUDY    43  39  86 N10       29.76S
AURORA         CLOUDY    43  40  89 N15       29.74F
HASTINGS       CLOUDY    44  38  79 N16       29.76S
HEBRON         CLOUDY    44  39  83 N12G20    29.73S
HOLDREGE       CLOUDY    45  37  72 N8        29.75F
KEARNEY *      CLOUDY    46  36  66 N14       29.75F
YORK           CLOUDY    43  39  87 N17       29.74S
$$

NEZ011>018-030>034-042>045-302300-
NORTHEAST NEBRASKA

CITY           SKY/WX    TMP DP  RH WIND       PRES   REMARKS
NORFOLK        CLOUDY    43  36  76 N15G25    29.75S
ALBION         CLOUDY    44  37  78 N13       29.76S
BLAIR          CLOUDY    44  40  87 N12G18    29.71R
FREMONT        CLOUDY    43  39  86 N5        29.73S
TEKAMAH        CLOUDY    44  39  82 N15       29.72S
WAYNE          CLOUDY    43  40  90 N15       29.76S
$$

NEZ050>053-065>068-078-088>093-302300-
SOUTHEAST NEBRASKA

CITY           SKY/WX    TMP DP  RH WIND       PRES   REMARKS
LINCOLN        CLOUDY    45  40  82 N16       29.74R
OMAHA EPPLEY   CLOUDY    44  38  79 N15       29.71R
BEATRICE       CLOUDY    45  41  88 N14G20    29.71S
FALLS CITY     CLOUDY    45  42  89 N16G22    29.67R
NEBRASKA CITY  CLOUDY    43  43 100 N9        29.69S
PLATTSMOUTH    CLOUDY    44  38  79 N8        29.70R
$$

NEZ044-045-051>053-067-302300-
OMAHA AREA

CITY           SKY/WX    TMP DP  RH WIND       PRES   REMARKS
OMAHA EPPLEY   CLOUDY    44  38  79 N15       29.71R
BLAIR          CLOUDY    44  40  87 N12G18    29.71R
FREMONT        CLOUDY    43  39  86 N5        29.73S
MILLARD        CLOUDY    47  41  81 N7        29.71R
OFFUTT AFB     CLOUDY    44  39  83 N10       29.70R
PLATTSMOUTH    CLOUDY    44  38  79 N8        29.70R
WAHOO          CLOUDY    44  40  88 N14       29.72S
$$




USA.gov is the U.S. government's official web portal to all federal, state and local government web resources and services.